CHUBUSAT 3

Satellite information

Favourite Embed

Satellite Type and Status

PAYLOADIN ORBIT

Key statistics

Satellite CHUBUSAT 3 at a glance.

Uptime

3430

Days in orbit

Revolutions

≈ 15.1

Per day

Orbit

LEO

Low Earth Orbit

Inclination

31.0

Latest

Satellite identification and parameters

Extended collection of information and parameters for CHUBUSAT 3.

Object identification

Identified? True

Debris? False

Object name: CHUBUSAT 3

International designator: 2016-012C

Object number (NORAD): 41339

Object ID (CCSDS): 41339

Country: JAPAN (JPN)

Current information (Y/N): Y

RCS size: MEDIUM

Orbital parameters

Period: 95.084 minutes

Inclination: 31.0067 deg

SMA: 6900.783 km

Apoapsis: 529.464 km

Periapsis: 515.832 km

RAAN: 48.6698 deg

Eccentricy: 0.0009877

Argument of periapsis: 180.5807 deg

Mean anomaly: 179.4822 deg

Mean motion: 15.1445096 rev/day

Mean motion (dot): 0.00003237 rev/day2

B* drag term: 0.00016627 1/REarth

Two-line elements (TLE)

Creation date: July 8, 2025, 10:36 p.m.

Reference frame: TEME

Reference center: EARTH

Epoch: July 8, 2025, 9:52 p.m. UTC

TLE line 0: 0 CHUBUSAT 3

TLE line 1: 1 41339U 16012C 25189.91113956 .00003237 00000-0 16627-3 0 9990

TLE line 2: 2 41339 31.0067 48.6698 0009877 180.5807 179.4822 15.14450960516134

Live tracking on map

Real-time ground track for satellite CHUBUSAT 3.

In-orbit conjunctions

There are no conjunctions computed for CHUBUSAT 3, at the moment. Check back to stay up to date, as we update our databases every day.

Go to all conjunctions

Associated space launch

Astro-H is the 6th satellite in a series of X-ray telescopes by JAXA and ISAS. Its 4 instruments on board will cover the X-ray and Gamma ray regions. This region consists of photons with energy ranging from 0.3-600keV, and the telescope will provide the highest resolution ever achieved of 3-10 keV bands. The craft weighs 2.7 tonnes and will be placed into a circular orbit 575km above the ground, with an inclination of 31 degrees.

CHUBUSAT 3 was lifted into orbit during the mission ‘H-IIA 202 | Astro-H (Hitomi)’, on board a H-IIA space rocket.

The launch took place on Feb. 17, 2016, 8:45 a.m. from Yoshinobu Launch Complex LP-1.

For more information about the launch, click the button.

Launch to space H-IIA 202 | Astro-H (Hitomi)
H-IIA 202 | Astro-H (Hitomi)

Agency: N/A

Status: Launch Successful

Launch date: Feb. 17, 2016, 8:45 a.m. UTC

Rocket: H-IIA

Launch pad: Yoshinobu Launch Complex LP-1

Location: Tanegashima Space Center, Japan

...

Latest news about this satellite

There are no fresh news available about this satellite. Check back as we update our databases every day.


Newsletter sign-up

Weekly statistics, charts and insights to help you stay on top of the space industry.